Vorticity
nan nan nan nan nan nan nan nan nan nan nan nan nan nan nan nan nan nan nan nan nan nan nan nan nan nan nan nan nan nan nan nan nan nan nan nan nan nan nan nan nan nan nan
nan 9 6 5 5 5 5 6 6 6 6 6 7 7 7 6 5 5 5 5 5 6 5 3 1 2 2 3 4 5 5 6 6 7 8 6 5 6 3 3 4 7 nan
nan 8 9 6 3 4 4 5 6 6 5 5 6 6 7 6 6 5 5 5 5 5 6 4 2 2 2 3 4 5 5 6 6 7 4 3 8 7 3 4 6 6 nan
nan 5 7 7 6 6 5 4 5 6 6 5 5 7 6 5 5 5 5 6 6 6 6 5 3 3 2 4 4 4 4 5 6 4 3 7 9 6 5 5 6 5 nan
nan 7 9 8 4 5 5 5 5 5 5 6 6 5 5 6 6 5 5 5 6 6 6 5 4 4 4 4 4 4 5 4 5 5 6 5 7 9 7 4 5 6 nan
nan 8 8 7 7 6 4 4 5 5 5 5 6 6 5 5 6 5 5 6 5 5 5 5 5 4 5 5 5 5 6 5 3 4 6 5 6 10 8 4 4 5 nan
nan 7 8 7 7 6 6 5 4 4 5 5 5 6 6 6 5 5 5 6 6 6 6 5 5 5 5 6 6 5 5 5 4 5 5 6 7 8 7 5 5 5 nan
nan 7 8 8 7 6 5 5 6 6 6 5 5 5 6 6 6 6 5 5 5 5 6 6 6 5 6 6 6 5 6 5 4 6 6 8 7 7 7 7 6 5 nan
nan 5 6 9 8 8 8 6 5 6 7 7 6 6 6 6 7 7 6 5 5 5 6 6 6 6 6 6 6 6 6 5 4 6 6 9 8 6 8 10 9 5 nan
nan 8 8 8 8 7 8 9 8 6 6 7 8 7 7 7 7 7 7 6 6 5 6 6 6 6 6 6 6 6 6 5 5 6 7 9 10 7 8 9 9 7 nan
nan 8 8 7 6 7 8 9 9 9 8 6 7 7 7 7 9 9 8 8 7 6 6 6 6 6 7 7 7 7 5 5 7 6 9 9 9 8 7 3 6 9 nan
nan 9 8 8 8 7 7 9 9 7 8 9 8 8 7 7 7 8 9 9 8 8 8 8 7 6 4 5 9 8 6 7 7 7 8 10 8 8 4 4 7 7 nan
nan 9 10 7 8 6 7 7 7 8 8 9 9 8 8 8 8 8 7 8 9 8 7 8 7 8 7 6 7 7 7 6 6 8 10 9 8 8 6 6 7 7 nan
nan 10 10 9 8 7 7 8 8 7 8 9 9 7 8 8 7 7 8 8 7 8 7 6 6 7 6 6 6 7 6 5 5 7 9 9 8 9 10 8 7 6 nan
nan 12 11 10 8 10 9 10 9 9 9 8 8 9 7 7 7 7 8 8 9 9 9 7 7 7 6 6 5 6 6 6 5 6 9 11 7 10 11 10 7 6 nan
nan 9 10 10 10 9 8 9 8 8 10 11 11 10 8 10 10 8 7 7 7 8 9 9 8 8 8 8 7 6 6 7 7 5 6 11 12 9 12 11 9 10 nan
nan 10 11 9 9 9 9 6 7 7 8 8 7 7 12 10 7 11 13 9 7 8 8 9 9 8 8 9 9 7 7 7 7 7 6 7 12 14 12 10 8 8 nan
nan 8 8 8 10 8 9 8 8 8 8 7 7 8 7 7 10 10 8 9 14 11 9 7 9 8 8 7 10 9 8 8 7 7 5 7 8 11 12 12 9 8 nan
nan 7 8 9 10 9 9 8 7 8 7 8 8 7 7 8 9 10 9 9 8 11 13 10 8 9 8 8 8 10 8 9 9 9 8 6 6 7 8 12 13 12 nan
nan 9 9 7 8 14 10 8 7 6 6 8 7 6 8 7 7 9 9 9 10 10 11 11 10 7 5 8 10 8 8 10 10 9 11 10 9 8 8 8 10 13 nan
nan 8 8 8 10 15 12 7 7 7 7 7 6 7 7 7 7 9 9 8 9 9 8 11 14 10 9 6 3 7 11 6 7 8 10 11 9 8 6 7 7 8 nan
nan 6 7 8 11 11 12 11 9 8 8 6 6 7 6 7 7 8 8 8 7 8 9 9 11 12 11 12 6 7 10 9 11 10 6 9 7 8 8 8 7 6 nan
nan 8 8 6 11 8 11 13 12 11 9 5 5 6 6 10 10 8 8 8 8 9 9 9 8 8 12 13 10 4 9 13 10 13 11 7 8 6 9 10 9 7 nan
nan 9 7 8 9 7 12 12 12 10 9 8 9 7 7 7 9 10 9 10 10 9 7 8 8 8 9 7 11 10 6 10 7 8 16 15 10 7 6 6 10 10 nan
nan 9 9 8 5 10 9 13 11 9 10 9 8 7 9 8 7 9 9 9 10 10 10 9 7 8 9 9 6 8 9 7 8 10 10 12 10 10 8 8 8 11 nan
nan nan nan nan nan nan nan nan nan nan nan nan nan nan nan nan nan nan nan nan nan nan nan nan nan nan nan nan nan nan nan nan nan nan nan nan nan nan nan nan nan nan nan
CAPE
1004 1154 1558 1817 1823 1724 1501 1423 1586 1701 2068 2320 2300 2259 2152 1961 1987 2070 2125 2362 2565 2677 2637 2400 2218 1851 1237 1236 1553 1608 1516 1350 1375 1873 2224 2224 1989 1849 1782 1712 1621 1418 1793
1286 1531 1581 1856 1932 1904 1695 1553 1654 1904 2132 2383 2469 2470 2321 2154 2138 2196 2318 2362 2653 2852 2753 2344 2361 2012 1473 1270 1330 1319 1332 1204 1255 1620 2227 2188 2124 1916 1725 1845 1541 1564 1740
1500 1668 1594 1847 1988 2032 1920 1841 1851 2135 2253 2310 2445 2483 2495 2466 2414 2358 2399 2429 2624 2939 2908 2267 2271 2214 1608 1394 1202 1271 1275 1258 1218 1585 2034 1503 1670 1936 1719 1922 1842 1808 1886
1512 1668 1657 1845 2016 2046 1917 1913 1987 2201 2345 2303 2338 2428 2459 2494 2479 2450 2431 2525 2799 2928 2868 2371 2199 2326 1920 1206 1106 1227 1271 1271 1242 1438 1178 1368 1590 2045 1766 1797 1906 1769 1924
1465 1639 1718 1833 1968 1985 1887 1907 1991 2125 2136 2165 2221 2405 2474 2499 2489 2467 2381 2565 2944 3098 2946 2395 2488 2652 1804 1131 946 1084 1275 1205 1235 870 949 1234 1435 1834 1812 1931 2073 2049 1794
1421 1574 1737 1792 1904 1939 1908 1900 1978 1930 1824 1906 1997 2294 2462 2555 2539 2399 2265 2576 2972 3055 2994 2814 2715 2334 1601 1187 936 937 1128 1121 1179 628 630 978 1197 1643 1821 2091 1991 1875 1733
1332 1379 1515 1691 1809 1888 1956 1963 1939 1853 1735 1769 1930 2084 2258 2437 2484 2258 2201 2513 2763 2830 2722 2571 2542 1847 1494 1217 1005 904 906 999 795 575 393 487 964 1686 1719 1877 1641 1889 1799
1517 1238 1378 1648 1804 1901 1841 1777 1816 1826 1727 1717 1834 1958 2187 2212 2169 2059 2097 2402 2551 2529 2406 2331 2146 1719 1483 1224 1077 882 806 867 655 312 187 156 465 1522 1729 1367 1417 1546 1799
1544 1298 1209 1508 1819 1940 1982 1815 1669 1744 1724 1681 1728 1872 1989 1989 1923 1798 1903 2119 2343 2361 2367 2156 2015 1810 1570 1406 1205 943 758 758 531 228 152 1 141 382 1703 1850 1468 1425 1730
1398 1223 1028 1122 1446 1485 1439 1644 1688 1656 1660 1618 1654 1741 1853 1815 1791 1796 1711 1826 2008 2271 2260 2297 2039 1754 1588 1440 1232 991 771 680 367 172 113 87 22 435 1573 2044 1780 1579 1378
1727 1279 958 1008 1185 1166 1152 1213 1404 1578 1626 1548 1575 1642 1608 1507 1447 1510 1563 1646 1800 1954 1934 2061 1897 1657 1523 1357 1077 962 812 434 339 91 42 114 431 658 1127 2044 1969 1729 1548
1354 1650 1045 951 1028 1027 1265 1205 1261 1315 1435 1448 1615 1547 1481 1628 1563 1406 1402 1482 1604 1493 1536 1731 1761 1554 1273 861 690 676 483 414 309 232 78 114 676 1170 1056 1732 1943 1856 1566
114 1457 1462 966 896 979 1261 985 872 987 1362 1398 1544 1592 1624 1544 1454 1386 1390 1209 992 1154 1102 1247 1361 1144 1037 751 378 315 309 331 266 252 365 285 530 1271 1593 1983 1963 1948 1554
0 257 1477 1201 1174 1132 1194 969 767 902 1002 1144 1328 1400 1374 1326 1323 1268 1289 1273 1153 1078 1102 1037 1262 1300 961 833 504 294 221 267 301 259 228 379 359 1018 1539 1911 2156 2065 2002
0 315 1164 1734 1582 1446 1579 1420 959 836 820 799 928 1151 1253 1236 1210 1193 1274 1216 1133 1042 1023 1009 1093 1246 1186 999 698 451 273 233 241 219 140 264 398 491 1347 1930 2111 1673 2290
0 3 0 1 12 0 0 0 0 0 119 447 357 523 725 857 904 976 1165 1244 1163 1021 930 1004 1005 1062 941 1011 903 593 455 309 200 174 114 154 173 197 707 1876 2261 2364 2338
0 0 0 0 0 0 0 0 0 0 0 0 0 0 0 1 11 134 881 1106 1210 1080 675 940 827 972 1004 887 826 860 659 382 239 193 155 118 146 53 84 687 1385 1854 2031
0 0 0 0 0 0 0 0 0 0 0 0 0 0 0 0 0 0 0 28 826 1298 967 890 888 907 969 887 828 815 681 635 415 313 253 169 102 97 82 43 295 757 1257
0 0 0 0 0 0 0 0 0 0 0 0 0 0 0 0 0 0 1 3 4 160 772 769 922 799 891 958 875 729 574 477 442 340 383 209 111 75 56 73 59 142 552
0 0 0 0 0 0 0 0 0 0 0 0 0 0 0 0 0 0 0 0 0 1 164 411 322 461 542 649 795 454 597 405 342 243 241 142 102 65 39 39 46 61 76
0 0 0 0 0 0 0 0 0 0 0 0 0 0 0 0 0 0 0 0 0 0 0 1 286 0 0 163 172 99 157 147 152 142 115 90 42 24 0 8 11 5 11
0 0 0 0 0 0 0 0 0 0 0 0 0 0 0 0 0 0 0 0 0 1 0 0 0 359 182 220 96 12 0 0 12 107 128 88 43 60 33 9 0 0 16
0 0 0 0 0 0 0 0 0 0 0 0 0 0 0 0 0 0 0 0 0 1 1 1 0 0 340 141 295 94 16 37 2 1 4 155 154 44 21 14 28 62 18
3 0 0 1 0 0 0 0 0 0 0 0 0 0 0 0 0 0 3 3 4 4 4 1 2 1 5 96 36 234 6 0 0 1 0 58 72 11 5 15 10 22 0
0 0 1 1 2 0 0 0 0 0 0 0 0 0 0 0 1 0 5 5 5 6 5 4 1 1 2 6 14 0 0 0 0 0 0 0 1 0 0 8 26 31 2
1 0 2 0 0 0 0 1 1 1 1 2 2 2 2 3 1 6 5 5 5 6 6 8 10 6 5 3 16 12 2 1 0 0 0 0 0 0 0 0 26 2 10